| time (UTC) | temp F | wind direction | speed MPH | gust MPH | rain 1hr in | rain 24hr in | rain mn in | humidity % | barometer mb |
| 20260509090006 | 54 | 147 | 0.0 | 2.0 | 0.00 | 0.00 | 0.00 | 69 | 1010.9 |
| 20260509084506 | 54 | 183 | 0.0 | 0.0 | 0.00 | 0.00 | 0.00 | 70 | 1011.0 |
| 20260509083004 | 54 | 122 | 0.0 | 1.0 | 0.00 | 0.00 | 0.00 | 70 | 1011.2 |
| 20260509081505 | 54 | 214 | 0.0 | 0.0 | 0.00 | 0.00 | 0.00 | 72 | 1011.2 |
| 20260509080004 | 54 | 214 | 0.0 | 1.0 | 0.00 | 0.00 | 0.00 | 71 | 1011.2 |
| 20260509074502 | 54 | 224 | 0.0 | 0.0 | 0.00 | 0.00 | 0.00 | 72 | 1011.1 |
| 20260509073005 | 53 | 231 | 0.0 | 1.0 | 0.00 | 0.00 | 0.00 | 72 | 1011.1 |
| 20260509071500 | 53 | 229 | 0.0 | 0.0 | 0.00 | 0.00 | 0.00 | 76 | 1011.2 |
| 20260509064557 | 54 | 229 | 0.0 | 0.0 | 0.00 | 0.00 | 0.00 | 75 | 1011.4 |
| 20260509063100 | 55 | 229 | 0.0 | 1.0 | 0.00 | 0.00 | 0.00 | 73 | 1011.5 |
| 20260509061606 | 55 | 117 | 0.0 | 3.0 | 0.00 | 0.00 | 0.00 | 72 | 1011.2 |
| 20260509060052 | 56 | 138 | 0.0 | 5.0 | 0.00 | 0.00 | 0.00 | 71 | 1011.1 |
| 20260509054557 | 56 | 125 | 0.0 | 3.0 | 0.00 | 0.00 | 0.00 | 70 | 1011.4 |
| 20260509053057 | 56 | 122 | 0.0 | 3.0 | 0.00 | 0.00 | 0.00 | 68 | 1011.8 |
| 20260509051548 | 56 | 116 | 0.0 | 4.0 | 0.00 | 0.00 | 0.00 | 65 | 1012.2 |
| 20260509050042 | 56 | 122 | 0.0 | 1.0 | 0.00 | 0.00 | 0.00 | 64 | 1012.2 |
| 20260509044546 | 55 | 128 | 0.0 | 0.0 | 0.00 | 0.00 | 0.00 | 67 | 1012.2 |
| 20260509043041 | 55 | 130 | 0.0 | 0.0 | 0.00 | 0.00 | 0.00 | 68 | 1012.1 |
| 20260509041537 | 55 | 131 | 0.0 | 0.0 | 0.00 | 0.00 | 0.00 | 70 | 1012.3 |
| 20260509040036 | 56 | 131 | 0.0 | 0.0 | 0.00 | 0.00 | 0.00 | 68 | 1012.4 |
| 20260509034536 | 57 | 130 | 0.0 | 0.0 | 0.00 | 0.00 | 0.00 | 67 | 1012.5 |
| 20260509033031 | 57 | 130 | 0.0 | 1.0 | 0.00 | 0.00 | 0.00 | 64 | 1012.5 |
| 20260509031533 | 58 | 130 | 0.0 | 1.0 | 0.00 | 0.00 | 0.00 | 64 | 1012.5 |
| 20260509030030 | 57 | 207 | 0.0 | 1.0 | 0.00 | 0.00 | 0.00 | 64 | 1012.3 |
| 20260509024529 | 57 | 130 | 0.0 | 3.0 | 0.00 | 0.00 | 0.00 | 66 | 1012.3 |
| 20260509023033 | 57 | 210 | 0.0 | 1.0 | 0.00 | 0.00 | 0.00 | 70 | 1012.5 |
| 20260509021528 | 58 | 126 | 0.0 | 1.0 | 0.00 | 0.00 | 0.00 | 62 | 1012.9 |
| 20260509020034 | 59 | 126 | 0.0 | 1.0 | 0.00 | 0.00 | 0.00 | 61 | 1012.9 |
| 20260509014532 | 58 | 184 | 0.0 | 0.0 | 0.00 | 0.00 | 0.00 | 59 | 1012.9 |
| 20260509013027 | 59 | 184 | 0.0 | 0.0 | 0.00 | 0.00 | 0.00 | 58 | 1012.6 |
| 20260509011526 | 58 | 179 | 0.0 | 0.0 | 0.00 | 0.00 | 0.00 | 58 | 1012.3 |
| 20260509010027 | 59 | 179 | 0.0 | 0.0 | 0.00 | 0.00 | 0.00 | 57 | 1012.3 |
| 20260509004534 | 59 | 179 | 0.0 | 0.0 | 0.00 | 0.00 | 0.00 | 55 | 1012.2 |
| 20260509003024 | 60 | 179 | 0.0 | 0.0 | 0.00 | 0.00 | 0.00 | 54 | 1012.1 |
| 20260509001524 | 60 | 179 | 0.0 | 0.0 | 0.00 | 0.00 | 0.00 | 54 | 1011.9 |
| 20260509000023 | 61 | 205 | 0.0 | 3.0 | 0.00 | 0.00 | 0.00 | 52 | 1011.8 |
| 20260508234523 | 61 | 179 | 0.0 | 1.0 | 0.00 | 0.00 | 0.00 | 52 | 1011.6 |
| 20260508233023 | 62 | 221 | 0.0 | 1.0 | 0.00 | 0.00 | 0.00 | 49 | 1011.4 |
| 20260508231521 | 63 | 222 | 0.0 | 2.0 | 0.00 | 0.00 | 0.00 | 48 | 1011.3 |
| 20260508230020 | 63 | 216 | 0.0 | 1.0 | 0.00 | 0.00 | 0.00 | 48 | 1011.3 |
| 20260508224527 | 63 | 195 | 0.0 | 1.0 | 0.00 | 0.00 | 0.00 | 46 | 1011.3 |
| 20260508223034 | 64 | 233 | 0.0 | 3.0 | 0.00 | 0.00 | 0.00 | 45 | 1011.2 |
| 20260508221520 | 64 | 243 | 0.0 | 2.0 | 0.00 | 0.00 | 0.00 | 46 | 1011.2 |
| 20260508220022 | 64 | 267 | 0.0 | 4.0 | 0.00 | 0.00 | 0.00 | 42 | 1011.2 |
| 20260508214516 | 65 | 221 | 0.0 | 3.0 | 0.00 | 0.00 | 0.00 | 42 | 1011.2 |
| 20260508213015 | 65 | 255 | 0.0 | 4.0 | 0.00 | 0.00 | 0.00 | 42 | 1011.2 |
| 20260508211515 | 65 | 179 | 0.0 | 6.0 | 0.00 | 0.00 | 0.00 | 41 | 1011.2 |
| 20260508210014 | 66 | 235 | 0.0 | 5.0 | 0.00 | 0.00 | 0.00 | 43 | 1011.2 |
| 20260508204514 | 67 | 250 | 1.0 | 7.0 | 0.00 | 0.00 | 0.00 | 44 | 1011.2 |
| 20260508203012 | 66 | 210 | 0.0 | 4.0 | 0.00 | 0.00 | 0.00 | 43 | 1011.2 |
| 20260508201515 | 65 | 240 | 0.0 | 5.0 | 0.00 | 0.00 | 0.00 | 44 | 1011.1 |
| 20260508200013 | 65 | 155 | 2.0 | 7.0 | 0.00 | 0.00 | 0.00 | 41 | 1011.3 |
| 20260508194509 | 66 | 193 | 0.0 | 7.0 | 0.00 | 0.00 | 0.00 | 43 | 1011.5 |
| 20260508193008 | 68 | 196 | 2.0 | 8.0 | 0.00 | 0.00 | 0.00 | 39 | 1011.8 |
| 20260508191519 | 68 | 232 | 1.0 | 9.0 | 0.00 | 0.00 | 0.00 | 43 | 1011.9 |
| 20260508190005 | 67 | 224 | 1.0 | 7.0 | 0.00 | 0.00 | 0.00 | 43 | 1012.2 |
| 20260508184601 | 66 | 210 | 1.0 | 5.0 | 0.00 | 0.00 | 0.00 | 43 | 1012.4 |
| 20260508183105 | 65 | 250 | 0.0 | 3.0 | 0.00 | 0.00 | 0.00 | 44 | 1012.4 |
| 20260508181558 | 64 | 212 | 2.0 | 7.0 | 0.00 | 0.00 | 0.00 | 44 | 1012.6 |
| 20260508180124 | 65 | 260 | 2.0 | 10.0 | 0.00 | 0.00 | 0.00 | 45 | 1012.8 |
| 20260508174610 | 65 | 234 | 1.0 | 6.0 | 0.00 | 0.00 | 0.00 | 46 | 1012.8 |
| 20260508173052 | 63 | 248 | 1.0 | 5.0 | 0.00 | 0.00 | 0.00 | 45 | 1012.9 |
| 20260508171552 | 63 | 256 | 1.0 | 7.0 | 0.00 | 0.00 | 0.00 | 46 | 1013.0 |
| 20260508170052 | 63 | 271 | 0.0 | 5.0 | 0.00 | 0.00 | 0.00 | 47 | 1013.2 |
| 20260508164553 | 62 | 200 | 2.0 | 6.0 | 0.00 | 0.00 | 0.00 | 48 | 1013.3 |
| 20260508163049 | 63 | 275 | 1.0 | 5.0 | 0.00 | 0.00 | 0.00 | 47 | 1013.4 |
| 20260508161546 | 63 | 223 | 1.0 | 8.0 | 0.00 | 0.00 | 0.00 | 48 | 1013.4 |
| 20260508160043 | 62 | 231 | 1.0 | 4.0 | 0.00 | 0.00 | 0.00 | 50 | 1013.6 |
| 20260508154541 | 61 | 253 | 1.0 | 9.0 | 0.00 | 0.00 | 0.00 | 51 | 1013.7 |
| 20260508153039 | 61 | 178 | 1.0 | 6.0 | 0.00 | 0.00 | 0.00 | 53 | 1013.8 |
| 20260508151535 | 60 | 221 | 1.0 | 6.0 | 0.00 | 0.00 | 0.00 | 52 | 1014.1 |
| 20260508150035 | 60 | 336 | 0.0 | 6.0 | 0.00 | 0.00 | 0.00 | 53 | 1014.2 |
| 20260508144529 | 59 | 243 | 0.0 | 5.0 | 0.00 | 0.00 | 0.00 | 54 | 1014.2 |
| 20260508143026 | 58 | 264 | 1.0 | 6.0 | 0.00 | 0.00 | 0.00 | 55 | 1014.5 |
| 20260508141524 | 57 | 224 | 1.0 | 5.0 | 0.00 | 0.00 | 0.00 | 55 | 1014.6 |
| 20260508140020 | 56 | 224 | 0.0 | 6.0 | 0.00 | 0.00 | 0.00 | 57 | 1014.6 |
| 20260508134515 | 54 | 206 | 0.0 | 5.0 | 0.00 | 0.00 | 0.00 | 61 | 1014.8 |
| 20260508133012 | 52 | 210 | 0.0 | 3.0 | 0.00 | 0.00 | 0.00 | 66 | 1015.0 |
| 20260508131511 | 50 | 206 | 0.0 | 2.0 | 0.00 | 0.00 | 0.00 | 67 | 1015.1 |
| 20260508130010 | 50 | 224 | 0.0 | 1.0 | 0.00 | 0.00 | 0.00 | 68 | 1015.1 |
| 20260508124508 | 50 | 218 | 0.0 | 3.0 | 0.00 | 0.00 | 0.00 | 67 | 1014.9 |
| 20260508123008 | 50 | 207 | 0.0 | 3.0 | 0.00 | 0.00 | 0.00 | 66 | 1015.0 |
| 20260508121507 | 50 | 231 | 0.0 | 5.0 | 0.00 | 0.00 | 0.00 | 67 | 1014.9 |
| 20260508120012 | 50 | 221 | 0.0 | 3.0 | 0.00 | 0.00 | 0.00 | 68 | 1014.7 |
| 20260508114508 | 49 | 212 | 0.0 | 1.0 | 0.00 | 0.00 | 0.00 | 70 | 1014.7 |
| 20260508113006 | 47 | 231 | 0.0 | 1.0 | 0.00 | 0.00 | 0.00 | 74 | 1014.7 |
| 20260508111505 | 47 | 230 | 0.0 | 0.0 | 0.00 | 0.00 | 0.00 | 75 | 1014.5 |
| 20260508110003 | 45 | 230 | 0.0 | 1.0 | 0.00 | 0.00 | 0.00 | 76 | 1014.4 |
| 20260508104602 | 44 | 230 | 0.0 | 0.0 | 0.00 | 0.00 | 0.00 | 77 | 1014.2 |
| 20260508103058 | 43 | 230 | 0.0 | 0.0 | 0.00 | 0.00 | 0.00 | 81 | 1014.1 |
| 20260508101557 | 43 | 230 | 0.0 | 0.0 | 0.00 | 0.00 | 0.00 | 78 | 1014.0 |
| 20260508100057 | 43 | 230 | 0.0 | 1.0 | 0.00 | 0.00 | 0.00 | 78 | 1013.8 |
| 20260508094600 | 43 | 230 | 0.0 | 0.0 | 0.00 | 0.00 | 0.00 | 77 | 1013.8 |
| 20260508093101 | 43 | 230 | 0.0 | 0.0 | 0.00 | 0.00 | 0.00 | 77 | 1013.9 |
| 20260508091604 | 43 | 230 | 0.0 | 0.0 | 0.00 | 0.00 | 0.00 | 77 | 1013.7 |